This is the latest recevied weather packets stored in our database for station/object AD4WX-13. If no packets are shown the sender has not sent any weather packets the latest 10 day(s).
| Time | Temp. | Humidity | Pressure | Rain* | Wind** | Luminosity | Snow |
|---|---|---|---|---|---|---|---|
| 1777897405 | 11.67° C | 90% | 1012.7 hPa | 0 mm | - | 137 W/m² | - |
| 1777890055 | 9.44° C | 91% | 1012.3 hPa | 0 mm | - | 0 W/m² | - |
| 1777886381 | 8.33° C | 91% | 1012.4 hPa | 0 mm | - | 0 W/m² | - |
| 1777885718 | 8.33° C | 91% | 1012.5 hPa | 0 mm | - | 0 W/m² | - |
| 1777884406 | 7.78° C | 91% | 1012.6 hPa | 0 mm | - | 0 W/m² | - |
| 1777880109 | 8.33° C | 91% | 1012.9 hPa | 0 mm | - | 0 W/m² | - |
| 1777870341 | 9.44° C | 88% | 1013.8 hPa | 0 mm | - | 0 W/m² | - |
| 1777867815 | 9.44° C | 87% | 1014 hPa | 0 mm | - | 0 W/m² | - |
| 1777865363 | 10° C | 87% | 1014.2 hPa | 0 mm | - | 0 W/m² | - |
| 1777861045 | 11.11° C | 80% | 1014.3 hPa | 0 mm | - | 0 W/m² | - |
| 1777858537 | 12.78° C | 74% | 1014.1 hPa | 0 mm | - | 0 W/m² | - |
| 1777857264 | 13.89° C | 70% | 1014.1 hPa | 0 mm | - | 0 W/m² | - |
| 1777854238 | 17.22° C | 57% | 1013.9 hPa | 0 mm | - | 14 W/m² | - |
| 1777852328 | 19.44° C | 46% | 1014.2 hPa | 0 mm | - | 130 W/m² | - |
| 1777850483 | 20.56° C | 40% | 1014.2 hPa | 0 mm | - | 230 W/m² | - |
| 1777835929 | 21.11° C | 36% | 1018 hPa | 0 mm | - | 907 W/m² | - |
| 1777833490 | 20° C | 41% | 1018.7 hPa | 0 mm | - | 949 W/m² | - |
| 1777818947 | 14.44° C | 66% | 1020.9 hPa | 0 mm | - | 647 W/m² | - |
| 1777811062 | 5° C | 91% | 1020.7 hPa | 0 mm | - | 162 W/m² | - |
| 1777807975 | 3.33° C | 92% | 1020.1 hPa | 0 mm | - | 32 W/m² | - |
| 1777803759 | 2.78° C | 92% | 1019.3 hPa | 0 mm | - | 0 W/m² | - |
| 1777803069 | 3.33° C | 92% | 1019.3 hPa | 0 mm | - | 0 W/m² | - |
| 1777796324 | 3.89° C | 92% | 1019.2 hPa | 0 mm | - | 0 W/m² | - |
| 1777795646 | 3.89° C | 92% | 1019.1 hPa | 0 mm | - | 0 W/m² | - |
| 1777794335 | 3.89° C | 92% | 1018.9 hPa | 0 mm | - | 0 W/m² | - |
* Rain latest hour (hover to see other rain measurements)
** Current wind speed in m/s (hover to see current wind gust speed)